CW2972 Weather Reports


time (UTC)temp
C
wind
direction
speed
KPH
gust
KPH
rain 1hr
cm
rain 24hr
cm
rain mn
cm
humidity
%
barometer
mb
20260906004204 31 167 0.0 3.2 0.00 0.00 0.00 69 1010.6
20260906004004 31 0 0.0 0.0 0.00 0.00 0.00 69 1010.6
20260906003804 31 0 0.0 0.0 0.00 0.00 0.00 69 1010.6
20260906003604 31 0 0.0 0.0 0.00 0.00 0.00 68 1010.7
20260906003404 31 0 0.0 0.0 0.00 0.00 0.00 68 1010.8
20260906003204 31 0 0.0 0.0 0.00 0.00 0.00 68 1010.8
20260906003004 31 0 0.0 0.0 0.00 0.00 0.00 68 1010.8
20260906002804 31 0 0.0 0.0 0.00 0.00 0.00 68 1010.8
20260906002625 31 0 0.0 0.0 0.00 0.00 0.00 68 1010.8
20260906002404 31 0 0.0 0.0 0.00 0.00 0.00 67 1010.9
20260906002204 31 91 0.0 1.6 0.00 0.00 0.00 67 1010.9
20260906002004 31 91 0.0 1.6 0.00 0.00 0.00 68 1011.0
20260906001804 31 91 0.0 1.6 0.00 0.00 0.00 67 1011.1
20260906001625 31 91 0.0 1.6 0.00 0.00 0.00 67 1011.1
20260906001404 31 91 0.0 1.6 0.00 0.00 0.00 67 1011.0
20260906001204 32 0 0.0 0.0 0.00 0.00 0.00 67 1011.0
20260906001004 32 0 0.0 0.0 0.00 0.00 0.00 66 1011.1
20260906000804 32 0 0.0 0.0 0.00 0.00 0.00 66 1011.1
20260906000604 32 91 0.0 1.6 0.00 0.00 0.00 66 1011.1
20260906000404 32 91 0.0 1.6 0.00 0.00 0.00 66 1011.1
20260906000204 32 91 0.0 1.6 0.00 0.00 0.00 65 1011.2
20260906000004 32 91 0.0 1.6 0.00 0.00 0.00 65 1011.1
20260905235804 32 91 0.0 1.6 0.00 0.00 0.00 65 1011.2
20260905235604 32 91 0.0 1.6 0.00 0.00 0.00 64 1011.1
20260905235425 32 91 0.0 1.6 0.00 0.00 0.00 64 1011.1
20260905235204 32 91 0.0 1.6 0.00 0.00 0.00 64 1011.0
20260905235025 32 91 1.6 1.6 0.00 0.00 0.00 64 1011.0
20260905234804 32 90 1.6 3.2 0.00 0.00 0.00 64 1011.0
20260905234604 32 99 1.6 3.2 0.00 0.00 0.00 63 1011.0
20260905234425 33 106 1.6 4.8 0.00 0.00 0.00 63 1011.0
20260905234204 33 113 1.6 4.8 0.00 0.00 0.00 63 1011.0
20260905234004 33 114 1.6 4.8 0.00 0.00 0.00 63 1011.1
20260905233825 33 115 1.6 4.8 0.00 0.00 0.00 62 1011.1
20260905233604 33 119 1.6 4.8 0.00 0.00 0.00 62 1011.0
20260905233404 33 122 1.6 4.8 0.00 0.00 0.00 62 1010.9
20260905233225 33 115 1.6 3.2 0.00 0.00 0.00 62 1010.9
20260905233025 33 106 1.6 3.2 0.00 0.00 0.00 62 1011.0
20260905232804 33 103 0.0 3.2 0.00 0.00 0.00 62 1010.9
20260905232604 34 102 0.0 3.2 0.00 0.00 0.00 62 1010.9
20260905232404 34 98 0.0 3.2 0.00 0.00 0.00 61 1010.9
20260905232204 34 90 0.0 3.2 0.00 0.00 0.00 61 1010.9
20260905232004 34 45 0.0 1.6 0.00 0.00 0.00 61 1011.0
20260905231804 34 16 0.0 1.6 0.00 0.00 0.00 61 1011.0
20260905231604 34 14 0.0 1.6 0.00 0.00 0.00 60 1011.0
20260905231404 34 14 1.6 1.6 0.00 0.00 0.00 60 1011.0
20260905231225 35 25 1.6 1.6 0.00 0.00 0.00 60 1011.0
20260905231025 35 98 1.6 8.0 0.00 0.00 0.00 60 1011.0
20260905230804 35 98 1.6 8.0 0.00 0.00 0.00 59 1011.0
20260905230604 35 91 1.6 8.0 0.00 0.00 0.00 59 1011.0
20260905230404 35 91 1.6 8.0 0.00 0.00 0.00 59 1010.9
20260905230204 35 85 0.0 8.0 0.00 0.00 0.00 58 1010.8
20260905230004 35 66 0.0 8.0 0.00 0.00 0.00 57 1010.8
20260905225804 35 44 0.0 3.2 0.00 0.00 0.00 56 1010.7
20260905225604 35 42 0.0 3.2 0.00 0.00 0.00 56 1010.7
20260905225404 35 41 0.0 3.2 0.00 0.00 0.00 56 1010.7
20260905225204 35 42 0.0 3.2 0.00 0.00 0.00 56 1010.7
20260905225004 35 28 0.0 3.2 0.00 0.00 0.00 55 1010.7
20260905224804 35 10 0.0 1.6 0.00 0.00 0.00 55 1010.7
20260905224604 36 19 0.0 1.6 0.00 0.00 0.00 54 1010.7
20260905224404 36 25 0.0 1.6 0.00 0.00 0.00 54 1010.7
20260905224204 36 349 0.0 1.6 0.00 0.00 0.00 54 1010.7
20260905224004 36 344 0.0 1.6 0.00 0.00 0.00 53 1010.6
20260905223825 36 315 0.0 1.6 0.00 0.00 0.00 53 1010.6
20260905223604 36 277 0.0 1.6 0.00 0.00 0.00 53 1010.6
20260905223404 36 282 0.0 3.2 0.00 0.00 0.00 53 1010.7
20260905223204 36 283 0.0 4.8 0.00 0.00 0.00 52 1010.7
20260905223004 36 287 1.6 4.8 0.00 0.00 0.00 52 1010.8
20260905222804 36 285 1.6 4.8 0.00 0.00 0.00 52 1010.8
20260905222625 36 283 1.6 4.8 0.00 0.00 0.00 52 1010.7
20260905222425 36 284 1.6 8.0 0.00 0.00 0.00 52 1010.7
20260905222204 36 284 1.6 8.0 0.00 0.00 0.00 52 1010.7
20260905222025 36 281 1.6 8.0 0.00 0.00 0.00 52 1010.8
20260905221804 36 279 1.6 8.0 0.00 0.00 0.00 52 1010.7
20260905221625 36 280 0.0 8.0 0.00 0.00 0.00 51 1010.8
20260905221404 36 279 0.0 6.4 0.00 0.00 0.00 51 1010.7
20260905221204 36 282 0.0 6.4 0.00 0.00 0.00 51 1010.8
20260905221004 36 283 0.0 6.4 0.00 0.00 0.00 51 1010.8
20260905220804 36 292 0.0 6.4 0.00 0.00 0.00 52 1010.7
20260905220604 36 26 0.0 4.8 0.00 0.00 0.00 54 1010.7
20260905220404 36 38 0.0 1.6 0.00 0.00 0.00 53 1010.6
20260905220204 36 37 0.0 3.2 0.00 0.00 0.00 54 1010.5
20260905220004 36 34 0.0 3.2 0.00 0.00 0.00 53 1010.5
20260905215804 36 34 0.0 3.2 0.00 0.00 0.00 53 1010.5
20260905215604 36 33 0.0 3.2 0.00 0.00 0.00 53 1010.5
20260905215425 36 26 0.0 3.2 0.00 0.00 0.00 53 1010.6
20260905215204 35 309 0.0 1.6 0.00 0.00 0.00 53 1010.6
20260905215025 35 349 0.0 1.6 0.00 0.00 0.00 54 1010.6
20260905214825 35 296 0.0 1.6 0.00 0.00 0.00 54 1010.6
20260905214604 35 295 0.0 1.6 0.00 0.00 0.00 55 1010.6
20260905214404 35 292 0.0 1.6 0.00 0.00 0.00 55 1010.7
20260905214204 36 286 0.0 1.6 0.00 0.00 0.00 55 1010.7
20260905214004 36 285 0.0 1.6 0.00 0.00 0.00 55 1010.7
20260905213804 36 340 0.0 3.2 0.00 0.00 0.00 55 1010.7
20260905213604 36 324 0.0 3.2 0.00 0.00 0.00 55 1010.7
20260905213404 36 324 0.0 3.2 0.00 0.00 0.00 55 1010.8
20260905213204 36 8 0.0 3.2 0.00 0.00 0.00 55 1010.8
20260905213004 36 31 0.0 3.2 0.00 0.00 0.00 54 1010.9
20260905212804 36 36 0.0 3.2 0.00 0.00 0.00 54 1010.9
20260905212604 36 44 0.0 4.8 0.00 0.00 0.00 55 1010.9
20260905212404 36 45 0.0 4.8 0.00 0.00 0.00 55 1010.9
20260905212204 36 43 0.0 4.8 0.00 0.00 0.00 54 1010.8
20260905212004 36 50 0.0 4.8 0.00 0.00 0.00 55 1010.8
20260905211804 36 49 0.0 4.8 0.00 0.00 0.00 54 1010.8
20260905211604 36 52 0.0 1.6 0.00 0.00 0.00 54 1010.9
20260905211404 36 47 0.0 1.6 0.00 0.00 0.00 54 1010.8
20260905211204 36 44 0.0 1.6 0.00 0.00 0.00 54 1010.8
20260905211004 36 39 0.0 1.6 0.00 0.00 0.00 54 1010.9
20260905210803 36 39 0.0 1.6 0.00 0.00 0.00 54 1010.9
20260905210604 36 37 1.6 3.2 0.00 0.00 0.00 54 1010.9
20260905210404 36 41 1.6 3.2 0.00 0.00 0.00 54 1010.9
20260905210204 36 44 1.6 3.2 0.00 0.00 0.00 53 1010.9
20260905210004 36 43 1.6 3.2 0.00 0.00 0.00 52 1010.9
20260905205804 36 42 1.6 4.8 0.00 0.00 0.00 53 1011.0
20260905205604 36 44 1.6 4.8 0.00 0.00 0.00 53 1011.0
20260905205425 36 46 0.0 4.8 0.00 0.00 0.00 53 1011.0
20260905205204 36 44 0.0 4.8 0.00 0.00 0.00 53 1011.0
20260905205004 36 46 0.0 4.8 0.00 0.00 0.00 53 1011.1
20260905204804 36 50 0.0 3.2 0.00 0.00 0.00 53 1011.1
20260905204604 36 51 0.0 3.2 0.00 0.00 0.00 54 1011.2
20260905204424 36 42 0.0 3.2 0.00 0.00 0.00 53 1011.2
20260905204204 36 300 0.0 3.2 0.00 0.00 0.00 52 1011.2
20260905204003 36 300 0.0 3.2 0.00 0.00 0.00 52 1011.2
20260905203825 36 301 0.0 3.2 0.00 0.00 0.00 52 1011.3
20260905203603 36 301 0.0 3.2 0.00 0.00 0.00 52 1011.3
20260905203404 36 282 0.0 3.2 0.00 0.00 0.00 52 1011.3
20260905203204 36 0 0.0 0.0 0.00 0.00 0.00 52 1011.3